TimeMDT,TemperatureF,Dew PointF,Humidity,Sea Level PressureIn,VisibilityMPH,Wind Direction,Wind SpeedMPH,Gust SpeedMPH,PrecipitationIn,Events,Conditions,WindDirDegrees,DateUTC
5:00 AM,19.4,14.0,80,30.47,15.0,SE,5.8,-,N/A,,Overcast,130,2012-10-26 11:00:00
6:00 AM,19.4,14.0,80,30.46,15.0,ESE,9.2,-,N/A,,Overcast,110,2012-10-26 12:00:00
7:00 AM,15.8,12.2,86,30.47,15.0,East,8.1,-,N/A,,Overcast,100,2012-10-26 13:00:00
8:00 AM,17.6,12.2,79,30.47,15.0,SE,4.6,-,N/A,,Overcast,130,2012-10-26 14:00:00
9:00 AM,14.0,10.4,86,30.47,10.0,South,4.6,-,N/A,Snow,Light Snow,180,2012-10-26 15:00:00
10:00 AM,15.8,12.2,86,30.46,4.0,SSE,4.6,-,N/A,Snow,Light Snow,160,2012-10-26 16:00:00
11:00 AM,17.6,12.2,79,30.44,5.0,SSE,8.1,-,N/A,Snow,Light Snow,160,2012-10-26 17:00:00
11:57 AM,19.4,14.0,80,30.43,2.0,SSE,9.2,-,N/A,Snow,Light Snow,160,2012-10-26 17:57:00
12:00 PM,20,14,70,30.43,2,SSE,9.2,,,Snow,Light Snow,160,2012-10-26 18:00:00
12:00 PM,19.4,14.0,80,30.43,2.0,SSE,10.4,-,N/A,Snow,Light Snow,160,2012-10-26 18:00:00
12:26 PM,21.2,15.8,80,30.42,4.0,SSE,11.5,-,N/A,Snow,Light Snow,150,2012-10-26 18:26:00
1:00 PM,21.2,14.0,74,30.41,5.0,SSE,11.5,-,N/A,Snow,Light Snow,160,2012-10-26 19:00:00
2:00 PM,21.2,14.0,74,30.38,7.0,SSE,11.5,-,N/A,Snow,Light Snow,150,2012-10-26 20:00:00
3:00 PM,21.2,14.0,74,30.36,15.0,SSE,12.7,-,N/A,Snow,Light Snow,150,2012-10-26 21:00:00
3:03 PM,21.2,14.0,74,30.36,12.0,SSE,10.4,-,N/A,Snow,Light Snow,160,2012-10-26 21:03:00
4:00 PM,21.2,14.0,74,30.35,12.0,SSE,10.4,-,N/A,Snow,Light Snow,150,2012-10-26 22:00:00
5:00 PM,19.4,14.0,80,30.35,12.0,SSE,11.5,-,N/A,Snow,Light Snow,150,2012-10-26 23:00:00
6:00 PM,19,15,75,30.34,12,SE,12.7,,,Snow,Light Snow,130,2012-10-27 00:00:00
6:00 PM,19.4,14.0,80,30.34,12.0,SE,12.7,-,N/A,Snow,Light Snow,140,2012-10-27 00:00:00
7:00 PM,17.6,14.0,86,30.34,12.0,SE,11.5,-,N/A,Snow,Light Snow,140,2012-10-27 01:00:00
8:00 PM,17.6,14.0,86,30.34,10.0,SSE,10.4,-,N/A,,Overcast,150,2012-10-27 02:00:00
9:00 PM,17.6,14.0,86,30.33,10.0,SSE,11.5,-,N/A,Snow,Light Snow,160,2012-10-27 03:00:00
10:00 PM,17.6,15.8,93,30.32,10.0,SSE,9.2,-,N/A,,Overcast,160,2012-10-27 04:00:00